Regional Weather Roundup
Issued by NWS

Home | Current Version | Previous Version | Text Only | Print | Product List | Glossary Off
Versions: 1 2 3 4 5 6 7 8 9 10 11 12 13 14 15 16 17 18 19 20 21 22 23 24 25 26 27 28 29 30 31 32 33 34 35 36 37 38 39 40 41 42 43 44 45 46 47 48 49 50

000
ASUS43 KIND 280509
RWRIN

WEATHER ROUNDUP FOR INDIANA
NATIONAL WEATHER SERVICE INDIANAPOLIS IN
100 AM EDT SAT MAR 28 2015

NOTE: "FAIR" INDICATES FEW OR NO CLOUDS BELOW 12,000 FEET WITH NO
SIGNIFICANT WEATHER AND/OR OBSTRUCTIONS TO VISIBILITY.

* - STATION DOES NOT REPORT WEATHER SUCH AS PRECIPITATION OR FOG.

+ - STATION NOT QUALITY CONTROLLED BY THE NATIONAL WEATHER SERVICE.
    USE DATA WITH CAUTION...ESPECIALLY DEWPOINT AND RELATIVE
    HUMIDITY OBSERVATIONS.

INZ001>003-010>013-019-020-280600-
NORTHWEST INDIANA

CITY           SKY/WX    TMP DP  RH WIND       PRES   REMARKS
GARY /AIRPORT/ CLEAR     28   5  37 N13G21    30.22S WCI  17
KNOX *+          N/A     21   3  45 N8        30.19R WCI  12
LA PORTE +     MOCLDY    23  14  68 N10       30.19S WCI  13
MICHIGAN CITY+ MOCLDY    23  10  58 N7        30.21S WCI  15
MONTICELLO +   FAIR      19  14  82 NW6       30.19S WCI  11
RENSSELAER +   CLEAR     23  18  80 CALM      30.21S
VALPARAISO     CLEAR     21  12  68 N7        30.20R WCI  12

$$

LMZ046-743>745-280600-
SOUTHERN LAKE MICHIGAN

STATION/POSITION TIME  TEMP WIND        PRES
                       AIR  DIR/SP/G
                 (UTC) (F)  (DEG/KT/KT) (MB)
BURNS HARBOR     0500   26   10/ 15/ 22 1023.4S
MICHIGAN CITY    0500   24  350/ 20/ 23   N/A

$$

INZ004-005-014>016-021>024-280600-
NORTH CENTRAL INDIANA

CITY           SKY/WX    TMP DP  RH WIND       PRES   REMARKS
GOSHEN         CLEAR     20  11  68 N9        30.17R WCI   9
LOGANSPORT +   CLEAR     21  14  73 N7        30.20R WCI  13
PERU/GRISSOM   CLEAR     20  11  70 N7        30.16R WCI  11
ROCHESTER +    CLEAR     21  16  79 NW5       30.19R WCI  15
SOUTH BEND     FAIR      18  11  74 N7        30.19R WCI   9
WARSAW +       FAIR      19  12  73 N3        30.17R

$$

INZ006>009-017-018-025>027-280600-
NORTHEAST INDIANA

CITY           SKY/WX    TMP DP  RH WIND       PRES   REMARKS
ANGOLA *+      CLEAR     18  10  73 N3        30.14R
AUBURN +       CLEAR     21  12  68 NW6       30.16R WCI  14
FORT WAYNE     CLEAR     20  12  71 NW8       30.15S WCI  10
HUNTINGTON +   CLEAR     20   9  64 N5        30.16S WCI  13

$$

INZ028-029-035-036-043>045-051>053-280600-
WEST CENTRAL INDIANA

CITY           SKY/WX    TMP DP  RH WIND       PRES   REMARKS
CRAWFORDSVL +  CLEAR     19   9  66 N6        30.19S WCI  11
GREENCASTLE +  CLEAR     23  10  58 N12       30.19R WCI  12
LAFAYETTE      CLEAR     20  12  71 N8        30.21R WCI  10
TERRE HAUTE    CLEAR     25  14  63 NE7       30.21R WCI  17

$$

INZ030>032-037>040-046>048-054>057-064-065-280600-
CENTRAL INDIANA

CITY           SKY/WX    TMP DP  RH WIND       PRES   REMARKS
CP ATTERBURY + CLEAR     25  12  58 N9        30.17S WCI  15
FISHERS *+     CLOUDY    21  16  79 N3        30.17R
FRANKFORT +    FAIR      22  15  75 NW9       30.19S WCI  11
GREENWOOD *+   CLEAR     23   9  54 N8        30.17R WCI  14
INDIANAPOLIS   CLEAR     22  11  62 N13       30.15S WCI  10
-EAGLE CREEK   CLEAR     21  12  68 N8        30.16S WCI  11
KOKOMO *+        N/A     21  12  68 N12       30.17S WCI   9
MARION +       CLEAR     20  12  70 N6        30.16S WCI  13
MT COMFORT *+  PTCLDY    21   7  53 N12       30.16S WCI   9
SHELBYVILLE    CLOUDY    25  14  63 N9        30.15R WCI  15
ZIONSVILLE +   CLEAR     22  13  68 N10       30.17S WCI  11

$$

INZ033-034-041-042-049-050-058-059-280600-
EAST CENTRAL INDIANA

CITY           SKY/WX    TMP DP  RH WIND       PRES   REMARKS
MUNCIE         CLEAR     21  13  71 N10       30.15R WCI  10

$$

INZ060-061-067>069-081>083-085>088-280600-
SOUTHWEST INDIANA

CITY           SKY/WX    TMP DP  RH WIND       PRES   REMARKS
EVANSVILLE     CLEAR     31  19  61 N3        30.20R
HUNTINGBURG *+ CLEAR     28  18  64 N7        30.18S WCI  21
WASHINGTON +   CLEAR     27  18  69 N5        30.19S WCI  22

$$

INZ062-063-066-070>080-084-089>092-280600-
SOUTH CENTRAL AND SOUTHEAST INDIANA

CITY           SKY/WX    TMP DP  RH WIND       PRES   REMARKS
BEDFORD +      CLEAR     25  12  58 N7        30.17R WCI  17
BLOOMINGTON    CLEAR     23  15  71 N3        30.17R
NORTH VERNON + MOCLDY    27  14  59 NW6       30.15S WCI  20
SEYMOUR +      CLEAR     27  14  59 N8        30.17R WCI  18

$$




USA.gov is the U.S. government's official web portal to all federal, state and local government web resources and services.